TIME,DELAY(SENSOR),PRES,OXYGEN,RAWTEMP,T(OPTODE),TCPHASE,FLUOR,BETA(BETA700),BETA(BETA412),BETA(BETA440),CDOM,C(CSC),ED(ED412.40),ED(ED444.00),ED(ED489.70),ED(ED554.30),LU(LU411.80),LU(LU443.40),LU(LU489.60),LU(LU554.10),COMP,TILTX,TILTY,CHECK
1346730353,5806,841.7700195312500000,48.0962982177734400,664.9594116210938000,4.4645628929138180,53.8737106323242200,54,99,89,80,81,15306,2147759862,2147422482,2148007817,2147873792,2147641673,2147060105,2148259785,2147198354,543,5,13,32493
1346733949,5808,917.9299926757812000,51.6463508605957000,673.7719726562500000,4.1735129356384280,53.4934196472168000,53,98,92,79,81,15306,2147757558,2147422262,2148009801,2147875410,2147645476,2147060900,2148253997,2147196251,1940,5,13,23761
1346737549,5808,935.7999877929688000,52.9263992309570300,676.2318115234375000,4.0921168327331540,53.3537216186523440,53,101,88,79,82,15305,2147759716,2147418578,2148008822,2147873673,2147644662,2147064722,2148257490,2147190107,699,5,13,57724
1346741149,5811,975.5900268554688000,52.9301910400390600,678.1726074218750000,4.0278449058532715,53.3746490478515600,52,98,87,79,81,15308,2147761609,2147420571,2148006665,2147874368,2147644297,2147067629,2148255369,2147195894,603,5,13,62051
1346744749,5812,986.8200073242188000,52.5067405700683600,677.0253295898438000,4.0658440589904785,53.4195404052734400,52,97,87,79,81,15309,2147761856,2147421504,2148009929,2147874797,2147641609,2147065965,2148259081,2147199698,40,5,13,38291
1346748349,5808,996.4699707031250000,52.5296401977539060,677.5230712890625000,4.0493578910827640,53.4211006164550800,53,98,91,79,81,15294,2147762048,2147420041,2148012809,2147875264,2147643456,2147060736,2148260288,2147197549,112,5,13,17386
1346751949,5807,995.0000000000000000,51.8650703430175800,675.9357910156250000,4.1019148826599120,53.4895286560058600,51,101,85,79,82,15297,2147761097,2147421641,2148013421,2147875282,2147642569,2147061458,2148256804,2147197933,6,5,13,9875
1346755549,5811,998.2800292968750000,51.5569915771484400,675.5626220703125000,4.1142687797546390,53.5297508239746100,52,97,89,78,82,15295,2147761261,2147420690,2148012681,2147872996,2147644297,2147064182,2148261467,2147196352,208,5,13,5311
1346759149,5807,991.9799804687500000,51.4504089355468750,675.8692016601562000,4.1041197776794430,53.5429496765136700,52,103,87,79,81,15290,2147761746,2147418532,2148013357,2147872768,2147642569,2147061266,2148258752,2147196754,1058,4,13,46937
1346762749,5807,992.3200073242188000,51.6595993041992200,675.9144287109375000,4.1026248931884770,53.5193290710449200,52,99,89,77,82,15292,2147761316,2147425152,2148013129,2147875392,2147643977,2147063542,2148261604,2147195675,3430,5,13,45326
1346766349,5809,995.0900268554688000,51.8908996582031250,677.1068115234375000,4.0631470680236820,53.5013694763183600,52,97,84,78,81,15289,2147761536,2147422290,2148008914,2147877430,2147642020,2147064475,2148259995,2147196626,316,5,13,42165
1346769949,5804,997.3099975585938000,51.7099685668945300,676.3363037109375000,4.0886569023132320,53.5192108154296900,52,100,84,79,82,15275,2147762340,2147417874,2148011657,2147874642,2147643446,2147066093,2148260507,2147196662,28,5,13,37304
1346773549,5807,991.0599975585938000,51.7700996398925800,677.0349121093750000,4.0655288696289060,53.5172004699707000,52,101,91,81,81,15275,2147758180,2147420800,2148013723,2147874130,2147642450,2147060662,2148259657,2147200438,843,5,13,21232
1346777149,5811,991.7500000000000000,51.9758491516113300,677.8585205078125000,4.0382499694824220,53.5011100769043000,52,99,88,79,81,15271,2147760420,2147420288,2148008960,2147876251,2147640859,2147060973,2148260342,2147195693,612,4,13,19642
1346780749,5813,1004.5900268554688000,52.1270103454589840,677.6917724609375000,4.0437698364257810,53.4812507629394500,52,102,85,79,83,15274,2147758372,2147417993,2148010596,2147873673,2147642514,2147062390,2148265344,2147193554,216,5,13,54256
1346784349,5811,999.7399902343750000,51.9418296813964840,678.3795776367188000,4.0209879875183105,53.5101203918457000,53,102,87,78,81,15273,2147760566,2147421686,2148011830,2147877184,2147643446,2147060324,2148256621,2147196635,3482,4,13,34113
1346787949,5806,997.5000000000000000,51.7215690612793000,679.2467041015625000,3.9922559261322020,53.5558815002441400,52,96,89,78,82,15266,2147762742,2147421376,2148011529,2147874450,2147641124,2147062418,2148261924,2147197604,505,5,13,13304
1346791549,5812,998.3699951171875000,51.7727508544921900,679.4486083984375000,3.9855649471282960,53.5457382202148440,53,98,91,78,81,15263,2147759981,2147421522,2148010148,2147873755,2147645065,2147062656,2148264585,2147195026,3,5,13,19747
1346795149,5810,1000.6400146484375000,51.5402908325195300,679.8071289062500000,3.9736840724945070,53.5814514160156250,53,97,87,78,82,15262,2147761344,2147417956,2148010441,2147873846,2147643913,2147058422,2148262774,2147193179,72,5,13,22507
1346798749,5808,998.3300170898438000,51.7009201049804700,679.4183959960938000,3.9865670204162598,53.5600395202636700,53,97,83,79,81,15265,2147763154,2147420233,2148010477,2147877824,2147643702,2147062829,2148261595,2147197193,18,5,13,65240
1346802349,5809,1003.2800292968750000,51.9787406921386700,679.0964965820312000,3.9972341060638428,53.5165405273437500,52,100,85,78,82,15263,2147760374,2147421092,2148012196,2147875958,2147644818,2147060790,2148260352,2147195629,41,5,13,8923
1346805949,5807,1006.9199829101562000,51.7853202819824200,679.1057739257812000,3.9969229698181152,53.5417213439941400,53,100,90,80,82,15259,2147757458,2147421952,2148008301,2147873627,2147644909,2147062180,2148265947,2147196534,59,5,13,11706
1346809549,5804,997.4699707031250000,50.7125015258789060,678.5375976562500000,4.0157527923583980,53.6809806823730500,52,99,87,81,80,15260,2147761755,2147422372,2148010633,2147874925,2147642166,2147059821,2148265846,2147194112,774,4,13,47882
1346813149,5808,990.5200195312500000,51.1429214477539060,679.2468261718750000,3.9922540187835693,53.6297683715820300,53,99,88,77,82,15259,2147761984,2147421184,2148010240,2147872164,2147643026,2147061787,2148263643,2147196196,232,5,13,61817
1346816749,5805,995.9099731445312000,51.2828292846679700,680.2551269531250000,3.9588339328765870,53.6236915588378900,52,99,84,79,81,15260,2147759131,2147422134,2148008914,2147873974,2147641984,2147061723,2148265691,2147197165,3475,5,13,22906
1346820349,5809,994.3499755859375000,51.2304992675781250,680.5756225585938000,3.9482100009918213,53.6356010437011700,53,98,91,79,82,15252,2147759414,2147425545,2148011373,2147875163,2147643968,2147061092,2148258779,2147198372,47,5,13,21716
1346823949,5808,1001.6500244140625000,51.5275688171386700,680.5006713867188000,3.9506890773773193,53.5931510925293000,53,97,86,80,82,15258,2147762742,2147424694,2148010212,2147877504,2147643008,2147061796,2148262628,2147197284,3304,5,13,17068
1346827549,5807,1004.7700195312500000,50.7708282470703100,679.0917968750000000,3.9973909854888916,53.6814117431640600,52,99,86,78,82,15261,2147763840,2147422208,2148009709,2147876077,2147643812,2147060425,2148265252,2147198034,3584,4,13,45713
1346831149,5811,1000.1199951171875000,51.3972396850585940,681.7437744140625000,3.9094679355621340,53.6289405822753900,53,99,86,79,82,15255,2147761819,2147421366,2148011693,2147874953,2147642587,2147057901,2148261851,2147195035,79,5,13,10648
1346834749,5808,1006.0999755859375000,51.5621109008789060,680.5864257812500000,3.9478509426116943,53.5898094177246100,53,99,85,78,82,15258,2147761298,2147423744,2148008786,2147872786,2147644854,2147061632,2148261065,2147197915,450,5,13,40372
1346838349,5807,1003.0900268554688000,51.1572494506835940,680.6311035156250000,3.9463670253753660,53.6493797302246100,53,101,87,80,80,15257,2147761362,2147419282,2148009060,2147876123,2147642843,2147062491,2148262235,2147195245,71,4,13,28971
1346841949,5811,1009.4400024414062000,51.2633399963378900,678.8153076171875000,4.0065522193908690,53.6059989929199200,52,97,88,79,81,15258,2147761673,2147420854,2148013229,2147873572,2147642788,2147057124,2148268726,2147199012,3538,4,14,17790
1346845549,5808,1004.3499755859375000,51.3047103881835940,677.6506958007812000,4.0451340675354000,53.5876312255859400,52,99,86,79,82,15257,2147759360,2147421805,2148007177,2147874203,2147642468,2147063021,2148265910,2147198829,3531,4,13,24044
1346849149,5806,1005.2800292968750000,51.5214309692382800,678.6898193359375000,4.0107097625732420,53.5698013305664060,53,98,89,78,81,15258,2147763803,2147420827,2148012452,2147869714,2147642194,2147059373,2148261915,2147197860,181,5,13,222
1346852749,5807,1009.1699829101562000,51.6904296875000000,677.7114868164062000,4.0431189537048340,53.5399208068847660,52,98,86,80,81,15252,2147760027,2147420681,2148010925,2147875584,2147645513,2147061458,2148262006,2147197330,3425,4,13,17860
1346856349,5808,1008.1300048828125000,51.0788497924804700,677.3687744140625000,4.0544681549072270,53.6162605285644500,52,97,87,80,81,15255,2147759963,2147420443,2148007561,2147874148,2147643702,2147065024,2148261513,2147198628,212,5,13,41544
1346859949,5810,996.8800048828125000,51.2569389343261700,678.8969116210938000,4.0038490295410160,53.6067008972168000,52,98,86,79,82,15257,2147764617,2147418285,2148006198,2147877513,2147645878,2147062162,2148262482,2147194569,3271,5,13,23835
1346863549,5811,1005.9400024414062000,51.5733909606933600,679.3419799804688000,3.9890999794006348,53.5710601806640600,51,123,89,78,82,15252,2147761572,2147420553,2148008438,2147876013,2147645449,2147064420,2148264713,2147197540,3584,4,14,53483
1346867149,5807,1006.6199951171875000,51.0811500549316400,679.9918823242188000,3.9675579071044920,53.6515083312988300,52,97,88,80,83,15254,2147759616,2147419931,2148011328,2147872429,2147647899,2147066038,2148258651,2147195858,185,5,13,30342
1346870749,5807,1008.0700073242188000,50.7930603027343750,680.5355224609375000,3.9495370388031006,53.6983184814453100,52,100,88,81,82,15254,2147760548,2147420982,2148008786,2147876425,2147643702,2147062473,2148265005,2147196452,200,5,13,37377
1346874349,5807,1016.5200195312500000,51.8302307128906250,679.3717041015625000,3.9881129264831543,53.5375289916992200,52,98,88,77,81,15253,2147759926,2147421220,2148009069,2147875044,2147646345,2147062866,2148259501,2147196041,3471,5,13,57711
1346874655,5807,1015.2000122070312000,51.8492889404296900,679.1442871093750000,3.9956510066986084,53.5358886718750000,53,98,88,80,81,15294,2147759881,2147421193,2148011126,2147875638,2147644781,2147060123,2148263954,2147193709,163,5,13,14165
